This is the latest recevied weather packets stored in our database for station/object KC5TIL-3. If no packets are shown the sender has not sent any weather packets the latest 10 day(s).
| Time | Temp. | Humidity | Pressure | Rain* | Wind** | Luminosity | Snow |
|---|---|---|---|---|---|---|---|
| 1777786404 | 18.33° C | 23% | 1017.8 hPa | 0 mm | 3.13 m/s, 216° | - | - |
| 1777786106 | 18.89° C | 23% | 1017.8 hPa | 0 mm | 3.13 m/s, 205° | - | - |
| 1777785804 | 18.89° C | 23% | 1017.8 hPa | 0 mm | 2.24 m/s, 189° | - | - |
| 1777785506 | 18.89° C | 23% | 1017.8 hPa | 0 mm | 3.13 m/s, 199° | - | - |
| 1777785208 | 18.89° C | 22% | 1017.8 hPa | 0 mm | 3.13 m/s, 168° | - | - |
| 1777784902 | 19.44° C | 22% | 1017.8 hPa | 0 mm | 2.68 m/s, 207° | - | - |
| 1777784604 | 19.44° C | 20% | 1017.8 hPa | 0 mm | 3.13 m/s, 221° | - | - |
| 1777784306 | 19.44° C | 20% | 1017.8 hPa | 0 mm | 2.68 m/s, 194° | - | - |
| 1777784004 | 19.44° C | 20% | 1017.8 hPa | 0 mm | 2.68 m/s, 216° | - | - |
| 1777783706 | 19.44° C | 20% | 1017.8 hPa | 0 mm | 1.79 m/s, 215° | - | - |
| 1777783408 | 19.44° C | 20% | 1017.8 hPa | 0 mm | 1.79 m/s, 207° | - | - |
| 1777783107 | 19.44° C | 20% | 1017.8 hPa | 0 mm | 2.68 m/s, 189° | - | - |
| 1777782808 | 19.44° C | 20% | 1017.8 hPa | 0 mm | 1.79 m/s, 224° | - | - |
| 1777782510 | 19.44° C | 20% | 1017.8 hPa | 0 mm | 2.24 m/s, 203° | - | - |
| 1777782209 | 19.44° C | 20% | 1017.8 hPa | 0 mm | 2.24 m/s, 211° | - | - |
| 1777781911 | 19.44° C | 20% | 1017.8 hPa | 0 mm | 1.79 m/s, 218° | - | - |
| 1777781613 | 19.44° C | 20% | 1017.8 hPa | 0 mm | 1.34 m/s, 214° | - | - |
| 1777781311 | 19.44° C | 20% | 1017.8 hPa | 0 mm | 1.34 m/s, 218° | - | - |
| 1777781013 | 20° C | 20% | 1017.8 hPa | 0 mm | 2.24 m/s, 189° | - | - |
| 1777780715 | 20° C | 20% | 1017.8 hPa | 0 mm | 2.24 m/s, 229° | - | - |
| 1777780414 | 20° C | 20% | 1017.8 hPa | 0 mm | 2.24 m/s, 208° | - | - |
| 1777780115 | 20° C | 20% | 1017.8 hPa | 0 mm | 1.79 m/s, 214° | - | - |
| 1777779506 | 20° C | 20% | 1017.8 hPa | 0 mm | 1.34 m/s, 219° | - | - |
| 1777779208 | 20° C | 20% | 1017.8 hPa | 0 mm | 1.79 m/s, 207° | - | - |
| 1777778911 | 20° C | 20% | 1017.8 hPa | 0 mm | 1.79 m/s, 202° | - | - |
* Rain latest hour (hover to see other rain measurements)
** Current wind speed in m/s (hover to see current wind gust speed)